Home > Weather > Cologne > Past weeks

Flag for Germany Weather for the Past 2 Weeks in Cologne, North Rhine-Westphalia, Germany

Now
39 °F

Partly cloudy.


Feels Like: 34 °F
Forecast: 39 / 43 °F
Wind: 8 mph from West

Location: Koeln / Bonn

Current Time: Feb 11, 2016 at 12:09:19 AM

Latest Report: Feb 10, 2016 at 11:20 PM


Visibility: N/A

Pressure: 29.56 "Hg

Humidity: 93%

Dew point: 37 °F

Location of CologneLocation

Historic Weather in Cologne — Graph

°F

Cologne Temperature Yesterday

Maximum temperature yesterday: 41 °F (at 1:20 PM)
Minimum temperature yesterday: 37 °F (at 1:20 AM)
Average temperature yesterday: 39 °F

High & Low Weather Summary for the Past Weeks

 TemperatureHumidityPressure
High55 °F (Jan 27, 2:20 PM)100% (Jan 30, 6:20 PM)30.33 "Hg (Jan 30, 6:20 PM)
Low32 °F (Jan 29, 3:20 AM)50% (Feb 8, 3:50 PM)28.88 "Hg (Feb 9, 3:20 PM)
Average45 °F81%29.89 "Hg
* Reported Jan 26 9:20 PM — Feb 10 9:50 PM, Cologne, Weather by CustomWeather, © 2016

Note: Actual official high and low records may vary slightly from our data, if they occured in-between our weather recording intervals... More about our weather records

Advertising

Cologne Weather History for the Previous 24 Hours

 ConditionsComfort  
Time TempWeatherWind HumidityBarometerVisibility
9:50 PM
Wed, Feb 10
39 °FPartly cloudy.12 mph93%29.53 "HgN/A
9:20 PM39 °FPartly cloudy.8 mph93%29.53 "HgN/A
8:50 PM39 °FPartly cloudy.14 mph100%29.50 "HgN/A
8:20 PM39 °FSprinkles. Partly cloudy.14 mph100%29.50 "HgN/A
7:50 PM39 °FSprinkles. Partly cloudy.16 mph93%29.50 "HgN/A
7:20 PM41 °FSprinkles. Partly cloudy.15 mph87%29.47 "HgN/A
6:50 PM41 °FSprinkles. Partly cloudy.12 mph87%29.45 "HgN/A
6:20 PM41 °FPassing clouds.15 mph87%29.45 "HgN/A
5:50 PM39 °FPartly cloudy.9 mph93%29.45 "HgN/A
5:20 PM39 °FBroken clouds.13 mph93%29.42 "HgN/A
4:50 PM41 °FSprinkles. Broken clouds.13 mph87%29.42 "HgN/A
4:20 PM39 °FScattered showers. Partly sunny.10 mph93%29.42 "HgN/A
3:50 PM39 °FSprinkles. Broken clouds.17 mph93%29.39 "HgN/A
3:20 PM41 °FScattered showers. Partly sunny.18 mph87%29.39 "HgN/A
2:50 PM41 °FSprinkles. Partly sunny.12 mph87%29.39 "HgN/A
2:20 PM41 °FSprinkles. Partly sunny.17 mph87%29.36 "HgN/A
1:50 PM41 °FLight rain. Partly sunny.13 mph87%29.36 "HgN/A
1:20 PM41 °FLight rain. Partly sunny.14 mph87%29.36 "HgN/A
12:50 PM39 °FLight rain. Broken clouds.13 mph93%29.36 "HgN/A
12:20 PM37 °FLight rain. Broken clouds.9 mph93%29.36 "HgN/A
11:50 AM39 °FLight rain. Broken clouds.14 mph87%29.36 "HgN/A
11:20 AM39 °FLight rain. Broken clouds.10 mph87%29.36 "HgN/A
10:50 AM39 °FLight rain. Mostly cloudy.16 mph87%29.33 "HgN/A
10:20 AM39 °FLight rain. Broken clouds.10 mph87%29.33 "HgN/A
9:50 AM39 °FLight rain. Broken clouds.10 mph87%29.33 "HgN/A
9:20 AM39 °FLight rain. Partly sunny.9 mph87%29.30 "HgN/A
8:50 AM39 °FLight rain. Broken clouds.10 mph87%29.30 "HgN/A
8:20 AM39 °FLight rain. Broken clouds.10 mph81%29.30 "HgN/A
7:50 AM39 °FSprinkles. Partly cloudy.12 mph81%29.30 "HgN/A
7:20 AM39 °FSprinkles. Partly cloudy.13 mph81%29.30 "HgN/A
6:50 AM39 °FSprinkles. Partly cloudy.13 mph81%29.27 "HgN/A
6:20 AM39 °FSprinkles. Partly cloudy.10 mph81%29.27 "HgN/A
5:50 AM39 °FSprinkles. Passing clouds.10 mph81%29.27 "HgN/A
5:20 AM39 °FSprinkles. Passing clouds.10 mph81%29.30 "HgN/A
4:50 AM39 °FPassing clouds.10 mph81%29.30 "HgN/A
4:20 AM39 °FPassing clouds.9 mph81%29.30 "HgN/A
3:50 AM39 °FPassing clouds.10 mph81%29.30 "HgN/A
3:20 AM37 °FPartly cloudy.8 mph87%29.30 "HgN/A
2:20 AM37 °FPartly cloudy.9 mph87%29.30 "HgN/A
1:20 AM37 °FPassing clouds.8 mph87%29.30 "HgN/A
12:20 AM39 °FPassing clouds.8 mph81%29.30 "HgN/A
Weather by CustomWeather, © 2016

See weather overviewHow to use our weather pages